Location: Lower Kingswood
(51.2667°N, 0.2167°W)
Time: 12:40:35
(UTC+00:00)

Cosmos 1461 - Pass Details

Date: 26 September 2023
Orbit: 493 x 618 km, 65.0° (Epoch: 28 November)

Event Time Altitude Azimuth Distance (km) Brightness Sun altitude
Exits shadow 03:25:46 53° 309° (NW) 772 3.3 -22.9°
Maximum altitude 03:25:55 53° 317° (NW) 769 3.4 -22.9°
Drops below altitude 10° 03:30:21 10° 35° (NE) 1,991 6.5 -22.2°
Sets 03:32:40 0° 41° (NE) 2,885 7.7 -21.9°
